Tracking 19792 objects as of 16-Jul-2019
HD Live streaming from Space Station
objects crossing your sky now

SL-3 R/B

Track SL-3 R/B now!
10-day predictions


NORAD ID: 7275
Int'l Code: 1974-025B
Perigee: 838.0 km
Apogee: 918.1 km
Inclination: 81.2 °
Period: 102.4 minutes
Semi major axis: 7249 km
RCS: 7.5013 m2 (large)
Launch date: April 24, 1974
Source: Commonwealth of Independent States (former USSR) (CIS)
Launch site: PLESETSK MISSILE AND SPACE COMPLEX (PKMTR)

Note: This is a ROCKET BODY
aabbcc
Your satellite tracking list
Your tracking list is empty




NASA's NSSDC Master Catalog

Two Line Element Set (TLE):
1  7275U 74025B   19196.41109400 +.00000063 +00000-0 +30646-4 0  9996
2  7275 081.2451 301.2446 0055202 262.7166 096.7726 14.06636501319640
Source of the keplerian elements: AFSPC